K4SHP-15 Weather Reports


time (UTC)temp
C
wind
direction
speed
KPH
gust
KPH
rain 1hr
cm
rain 24hr
cm
rain mn
cm
humidity
%
barometer
mb
20260906122703 22 346 3.2 6.4 0.00 0.66 0.00 99 1010.0
20260906121803 22 355 3.2 6.4 0.00 0.66 0.00 99 1010.0
20260906120903 21 342 3.2 6.4 0.00 0.66 0.00 100 1009.8
20260906120003 21 346 0.0 8.0 0.00 0.66 0.00 99 1009.8
20260906115403 21 346 0.0 8.0 0.00 0.66 0.00 100 1009.7
20260906114503 21 0 0.0 0.0 0.00 0.66 0.00 100 1009.7
20260906113603 21 0 0.0 0.0 0.00 0.66 0.00 99 1009.6
20260906112703 21 0 0.0 0.0 0.00 0.66 0.00 99 1009.3
20260906111803 21 0 0.0 0.0 0.00 0.66 0.00 99 1009.3
20260906110903 21 0 0.0 0.0 0.00 0.66 0.00 99 1009.2
20260906110003 21 0 0.0 0.0 0.00 0.66 0.00 99 1009.2
20260906105403 21 0 0.0 0.0 0.00 0.66 0.00 99 1009.1
20260906104503 21 0 0.0 0.0 0.00 0.66 0.00 99 1009.1
20260906103603 21 0 0.0 0.0 0.00 0.66 0.00 99 1009.1
20260906102703 21 334 0.0 1.6 0.00 0.66 0.00 99 1008.7
20260906101803 21 334 0.0 1.6 0.00 0.66 0.00 99 1008.7
20260906100903 21 334 0.0 1.6 0.00 0.66 0.00 99 1008.6
20260906100003 21 334 0.0 3.2 0.00 0.66 0.00 99 1008.6
20260906095403 21 337 0.0 4.8 0.00 0.66 0.00 99 1008.4
20260906094503 21 341 0.0 1.6 0.00 0.66 0.00 99 1008.4
20260906093603 21 0 0.0 0.0 0.00 0.66 0.00 99 1008.2
20260906092703 21 0 0.0 0.0 0.00 0.66 0.00 99 1008.2
20260906091803 21 0 0.0 0.0 0.00 0.66 0.00 99 1008.2
20260906090903 21 0 0.0 0.0 0.00 0.66 0.00 99 1008.1
20260906090003 21 0 0.0 0.0 0.00 0.66 0.00 99 1008.1
20260906085403 21 0 0.0 0.0 0.00 0.66 0.00 99 1008.2
20260906084503 21 0 0.0 0.0 0.00 0.66 0.00 99 1008.2
20260906083603 21 0 0.0 0.0 0.00 0.66 0.00 99 1008.1
20260906082703 21 0 0.0 0.0 0.00 0.66 0.00 99 1008.3
20260906081803 21 343 0.0 3.2 0.00 0.66 0.00 99 1008.3
20260906080903 21 345 1.6 3.2 0.00 0.66 0.00 99 1008.3
20260906080003 21 11 0.0 3.2 0.00 0.66 0.00 99 1008.3
20260906075403 21 0 0.0 0.0 0.00 0.66 0.00 99 1008.5
20260906074524 21 0 0.0 0.0 0.00 0.66 0.00 99 1008.5
20260906073603 21 0 0.0 0.0 0.00 0.66 0.00 99 1008.6
20260906072703 21 0 0.0 0.0 0.00 0.66 0.00 99 1008.7
20260906071803 21 0 0.0 0.0 0.00 0.66 0.00 99 1008.7
20260906070903 21 0 0.0 0.0 0.00 0.66 0.00 99 1008.7
20260906070003 21 0 0.0 0.0 0.00 0.66 0.00 99 1008.7
20260906065424 21 0 0.0 0.0 0.00 0.66 0.00 99 1009.0
20260906064503 21 0 0.0 0.0 0.00 0.66 0.00 99 1009.0
20260906063603 21 0 0.0 0.0 0.00 0.66 0.00 99 1009.1
20260906062703 21 0 0.0 0.0 0.00 0.66 0.00 99 1009.1
20260906061803 21 0 0.0 0.0 0.00 0.66 0.00 99 1009.1
20260906060903 21 0 0.0 0.0 0.00 0.66 0.00 98 1009.1
20260906060003 21 0 0.0 0.0 0.00 0.66 0.00 99 1009.1
20260906055403 21 0 0.0 0.0 0.00 0.66 0.00 99 1008.9
20260906054503 21 0 0.0 0.0 0.00 0.66 0.00 98 1008.9
20260906053603 21 0 0.0 0.0 0.00 0.66 0.00 98 1008.7
20260906052703 21 0 0.0 0.0 0.00 0.66 0.00 98 1009.1
20260906051803 21 0 0.0 0.0 0.00 0.66 0.00 98 1009.1
20260906050903 21 27 0.0 1.6 0.00 0.66 0.00 98 1009.2
20260906050003 21 27 0.0 3.2 0.00 0.66 0.00 98 1009.2
20260906045403 21 27 0.0 1.6 0.00 0.66 0.00 98 1009.6
20260906044503 21 27 0.0 3.2 0.00 0.66 0.00 98 1009.6
20260906043603 21 27 0.0 3.2 0.00 0.66 0.00 98 1009.8
20260906042703 21 0 0.0 0.0 0.00 0.66 0.00 98 1009.8
20260906041803 21 0 0.0 0.0 0.00 0.66 0.00 98 1009.8
20260906040924 21 0 0.0 0.0 0.00 0.66 0.00 98 1009.7
20260906040024 21 0 0.0 0.0 0.00 0.66 0.00 98 1009.7
20260906035403 22 0 0.0 0.0 0.00 0.66 0.66 98 1009.8
20260906034503 22 0 0.0 0.0 0.00 0.66 0.66 98 1009.8
20260906033603 22 0 0.0 0.0 0.00 0.66 0.66 98 1009.9
20260906032703 22 0 0.0 0.0 0.00 0.66 0.66 98 1009.9
20260906031801 22 0 0.0 0.0 0.00 0.66 0.66 97 1009.9
20260906030902 22 27 0.0 1.6 0.00 0.66 0.66 98 1010.2
20260906030002 22 27 1.6 4.8 0.00 0.66 0.66 98 1010.2
20260906025402 22 28 1.6 6.4 0.00 0.66 0.66 98 1010.2
20260906024502 22 24 3.2 8.0 0.00 0.66 0.66 98 1010.2
20260906023601 22 19 4.8 11.3 0.00 0.66 0.66 98 1009.9
20260906022702 22 13 1.6 6.4 0.00 0.66 0.66 98 1009.2
20260906021823 22 315 0.0 3.2 0.00 0.66 0.66 98 1009.2
20260906020902 22 315 0.0 3.2 0.00 0.66 0.66 98 1009.7
20260906020002 22 315 0.0 1.6 0.00 0.66 0.66 98 1009.7
20260906015402 22 315 0.0 1.6 0.00 0.66 0.66 98 1009.5
20260906014501 22 315 0.0 3.2 0.00 0.66 0.66 97 1009.5
20260906013602 22 315 1.6 3.2 0.00 0.66 0.66 97 1009.2
20260906012702 22 315 0.0 3.2 0.00 0.66 0.66 97 1009.2
20260906011802 22 315 0.0 1.6 0.00 0.66 0.66 97 1009.2
20260906010902 22 306 1.6 6.4 0.00 0.66 0.66 97 1009.2
20260906010002 22 337 3.2 9.7 0.00 0.66 0.66 97 1009.2
20260906005402 22 126 1.6 6.4 0.00 0.66 0.66 96 1008.8
20260906004523 22 168 3.2 6.4 0.00 0.66 0.66 96 1008.8
20260906003623 22 191 1.6 6.4 0.00 0.66 0.66 96 1009.1
20260906002702 22 203 3.2 8.0 0.00 0.66 0.66 96 1009.2
20260906001802 22 212 3.2 8.0 0.00 0.66 0.66 97 1009.2
20260906000902 22 188 3.2 14.5 0.00 0.66 0.66 96 1009.1
20260906000002 22 182 0.0 4.8 0.00 0.66 0.66 97 1009.1
20260905235402 22 182 1.6 4.8 0.03 0.66 0.66 96 1008.6
20260905234502 22 148 3.2 6.4 0.03 0.66 0.66 96 1008.6
20260905233623 22 254 1.6 4.8 0.03 0.66 0.66 97 1007.9
20260905232723 22 254 0.0 3.2 0.05 0.66 0.66 96 1008.7
20260905231802 22 247 1.6 4.8 0.30 0.66 0.66 96 1008.7
20260905230902 21 192 1.6 4.8 0.66 0.66 0.66 96 1009.7
20260905230002 21 102 3.2 6.4 0.66 0.66 0.66 95 1009.7
20260905225402 21 62 3.2 6.4 0.64 0.64 0.64 95 1009.7
20260905224523 21 5 3.2 8.0 0.64 0.64 0.64 94 1009.7
20260905223602 22 315 1.6 4.8 0.64 0.64 0.64 90 1009.2
20260905222702 23 326 4.8 20.9 0.61 0.61 0.61 86 1009.5
20260905221805 25 323 14.5 43.5 0.36 0.36 0.36 78 1009.5
20260905220023 33 195 0.0 1.6 0.00 0.00 0.00 72 1007.8
20260905215402 33 194 0.0 1.6 0.00 0.00 0.00 72 1006.1
20260905214502 33 181 1.6 3.2 0.00 0.00 0.00 70 1006.1
20260905213602 34 189 3.2 6.4 0.00 0.00 0.00 68 1006.9
20260905212702 35 204 3.2 6.4 0.00 0.00 0.00 66 1007.2
20260905211802 36 215 3.2 4.8 0.00 0.00 0.00 65 1007.2
20260905210923 36 205 4.8 8.0 0.00 0.00 0.00 62 1007.2
20260905210002 36 206 4.8 11.3 0.00 0.00 0.00 62 1007.2
20260905205402 36 198 3.2 9.7 0.00 0.00 0.00 63 1007.0
20260905204502 36 204 3.2 6.4 0.00 0.00 0.00 62 1007.0
20260905203602 36 204 4.8 9.7 0.00 0.00 0.00 62 1007.0
20260905202702 36 199 4.8 9.7 0.00 0.00 0.00 63 1006.9
20260905201802 36 196 3.2 8.0 0.00 0.00 0.00 64 1006.9
20260905200902 36 203 4.8 8.0 0.00 0.00 0.00 64 1007.3
20260905200002 36 192 3.2 8.0 0.00 0.00 0.00 64 1007.3
20260905195402 36 205 3.2 8.0 0.00 0.00 0.00 65 1007.3
20260905194502 36 197 4.8 12.9 0.00 0.00 0.00 64 1007.3
20260905193602 36 205 4.8 12.9 0.00 0.00 0.00 64 1007.3
20260905192702 36 202 4.8 12.9 0.00 0.00 0.00 64 1007.6
20260905191802 36 195 4.8 12.9 0.00 0.00 0.00 66 1007.6
20260905190902 36 195 4.8 12.9 0.00 0.00 0.00 63 1008.0
20260905190002 36 205 4.8 11.3 0.00 0.00 0.00 64 1008.0
20260905185423 36 206 4.8 11.3 0.00 0.00 0.00 66 1008.3
20260905184502 36 191 3.2 14.5 0.00 0.00 0.00 66 1008.3
20260905183602 36 192 3.2 8.0 0.00 0.00 0.00 66 1008.6
20260905182702 36 221 3.2 8.0 0.00 0.00 0.00 65 1008.8
20260905181802 35 207 4.8 9.7 0.00 0.00 0.00 64 1008.8
20260905180902 35 204 3.2 8.0 0.00 0.00 0.00 66 1009.2
20260905180023 35 197 4.8 12.9 0.00 0.00 0.00 68 1009.2
20260905175402 35 197 4.8 12.9 0.00 0.00 0.00 67 1009.5
20260905174502 35 196 4.8 9.7 0.00 0.00 0.00 69 1009.5
20260905173602 35 190 4.8 11.3 0.00 0.00 0.00 67 1009.6
20260905172702 35 212 4.8 11.3 0.00 0.00 0.00 71 1009.7
20260905171802 35 203 4.8 9.7 0.00 0.00 0.00 69 1009.7
20260905170902 34 201 4.8 14.5 0.00 0.00 0.00 70 1009.9
20260905170002 34 198 6.4 11.3 0.00 0.00 0.00 68 1009.9
20260905165402 34 199 6.4 11.3 0.00 0.00 0.00 71 1010.2
20260905164502 34 202 4.8 12.9 0.00 0.00 0.00 71 1010.2
20260905163623 34 200 4.8 9.7 0.00 0.00 0.00 72 1010.4
20260905162702 33 203 4.8 11.3 0.00 0.00 0.00 71 1010.7
20260905161823 33 198 4.8 8.0 0.00 0.00 0.00 71 1010.7
20260905160902 33 210 4.8 11.3 0.00 0.00 0.00 72 1010.7
20260905160023 33 205 3.2 11.3 0.00 0.00 0.00 72 1010.7
20260905155402 33 207 3.2 9.7 0.00 0.00 0.00 73 1010.9
20260905154523 33 205 3.2 8.0 0.00 0.00 0.00 74 1010.9
20260905153602 32 204 4.8 9.7 0.00 0.00 0.00 76 1011.1
20260905152723 32 211 4.8 11.3 0.00 0.00 0.00 75 1011.1
20260905151802 32 207 4.8 12.9 0.00 0.00 0.00 76 1011.1
20260905150923 32 215 4.8 11.3 0.00 0.00 0.00 77 1011.2
20260905150002 32 201 6.4 11.3 0.00 0.00 0.00 78 1011.2
20260905145402 31 206 4.8 11.3 0.00 0.00 0.00 79 1011.3
20260905144502 31 201 4.8 16.1 0.00 0.00 0.00 80 1011.3
20260905143602 31 202 6.4 11.3 0.00 0.00 0.00 81 1011.3
20260905142702 31 195 4.8 9.7 0.00 0.00 0.00 82 1011.3
20260905141802 30 204 4.8 9.7 0.00 0.00 0.00 83 1011.3
20260905140902 30 205 4.8 8.0 0.00 0.00 0.00 86 1011.4
20260905140002 29 198 4.8 11.3 0.00 0.00 0.00 87 1011.4
20260905135402 28 202 4.8 11.3 0.00 0.00 0.00 88 1011.3
20260905134502 28 215 3.2 11.3 0.00 0.00 0.00 90 1011.3
20260905133602 27 216 3.2 9.7 0.00 0.00 0.00 92 1011.6
20260905132702 27 216 3.2 11.3 0.00 0.00 0.00 93 1011.7
20260905131823 26 218 1.6 8.0 0.00 0.00 0.00 95 1011.7
20260905130902 26 230 3.2 6.4 0.00 0.00 0.00 96 1011.8
20260905130002 26 214 1.6 6.4 0.00 0.00 0.00 97 1011.8
20260905125402 26 219 3.2 11.3 0.00 0.00 0.00 98 1011.8
20260905124502 25 207 3.2 8.0 0.00 0.00 0.00 98 1011.8
20260905123602 25 210 3.2 6.4 0.00 0.00 0.00 99 1011.6